Tracking 20232 objects as of 18-Jan-2020
HD Live streaming from Space Station
objects crossing your sky now

HELLAS-SAT 2

Track HELLAS-SAT 2 now!
HELLAS-SAT 2 is classified as:


NORAD ID: 27811
Int'l Code: 2003-020A
Perigee: 35,781.9 km
Apogee: 35,806.2 km
Inclination: 1.6 °
Period: 1,436.1 minutes
Semi major axis: 42165 km
RCS: 15.8489 m2 (large)
Launch date: May 13, 2003
Source: Greece (GREC)
Launch site: AIR FORCE EASTERN TEST RANGE (AFETR)

30 Ku-band; television broadcasting services for the 2004 Summer Olympic Games in Athens.
aabbcc
Your satellite tracking list
Your tracking list is empty




NASA's NSSDC Master Catalog

Two Line Element Set (TLE):
1 27811U 03020A   20018.14335431 -.00000155  00000-0  00000+0 0  9990
2 27811   1.5594  93.8996 0002873 211.7849 127.7100  1.00270664 60854
Source of the keplerian elements: AFSPC